sat.trackr.live / text

‹ back to catalog

SATELIOT_1

NORAD 60550 · 2024-149CL

PAYLOAD ACTIVE UNKNOWN

§ Identity

Operator
Country
SPN
Launch date
2024-08-16
Launch site
AFWTR
Launch vehicle
Mass (kg)
RCS (m²)

External: N2YO · Heavens-Above · Gunter

§ Orbital elements

Epoch: 2026-05-25T02:46:05.445120Z

Period
96.13 min
Inclination
97.6758°
Eccentricity
0.0007308
Mean motion
14.97963137 rev/d
Perigee alt
568.1 km
Apogee alt
578.3 km
Semi-major
6,951.3 km
B*
1.0393e-4
RAAN
221.3993°
Arg perigee
140.6289°
Mean anomaly
219.5466°
Rev number
9,661

§ Raw data

SATELIOT_11 60550U 24149CL  26145.11534080  .00001168  00000+0  10393-3 0  99902 60550  97.6758 221.3993 0007308 140.6289 219.5466 14.97963137 96612

JSON: /api/v1/satellites/60550 · /tle

For live sub-satellite position, see the globe view (requires WebGL).

§ Visibility from observer

Set your observer location to see the next 7 days of passes ≥ 10°. The values pass through the URL so the page stays shareable.

No JS? Fill the form by hand. The geolocation button needs JavaScript.